Regional Weather Roundup
Issued by NWS Boston, MA

Home | Current Version | Previous Version | Text Only | Print | Product List | Glossary On
Versions: 1 2 3 4 5 6 7 8 9 10 11 12 13 14 15 16 17 18 19 20 21 22 23 24 25 26 27 28 29 30 31 32 33 34 35 36 37 38 39 40 41 42 43 44 45 46 47 48 49 50
000
ASUS41 KBOX 281410
RWRBOX

REGIONAL WEATHER ROUNDUP
NATIONAL WEATHER SERVICE TAUNTON MA
1000 AM EDT WED JUN 28 2017

NOTE:  "FAIR" INDICATES FEW OR NO CLOUDS BELOW 12,000 FEET WITH NO
SIGNIFICANT WEATHER AND/OR OBSTRUCTIONS TO VISIBILITY.

MAZALL-281500-
EASTERN MASSACHUSETTS

CITY           SKY/WX    TMP DP  RH WIND       PRES   REMARKS
BOSTON         MOSUNNY   68  53  58 W12       30.02S
BEVERLY        SUNNY     67  55  65 W12       30.00S
LAWRENCE       SUNNY     68  55  63 W12G18    30.03F
BEDFORD        MOSUNNY   68  51  54 W12       30.01F
BLUE HILL        N/A     66  54  65 MISG      30.02S
NORWOOD        SUNNY     69  55  60 W13G18    30.02S
MARSHFIELD     SUNNY     70  54  56 VRB7      30.01S
PLYMOUTH       SUNNY     67  52  58 W12       30.03S
TAUNTON        SUNNY     70  52  52 VRB6      30.03S
NEW BEDFORD    SUNNY     69  52  54 W9        30.03R
$$

MAZALL-281500-
CAPE COD AND THE ISLANDS

CITY           SKY/WX    TMP DP  RH WIND       PRES   REMARKS
FALMOUTH       SUNNY     68  52  56 W15       30.04S
HYANNIS        SUNNY     71  51  49 W12       30.01S
CHATHAM        SUNNY     69  53  56 W9        30.03S
PROVINCETOWN   SUNNY     66  56  70 W10       30.03R
NANTUCKET      SUNNY     69  54  58 W13       30.03S
MARTHAS VNYRD  SUNNY     70  54  56 W12       30.04S
$$

MAZALL-281500-
CENTRAL AND WESTERN MASSACHUSETTS

CITY           SKY/WX    TMP DP  RH WIND       PRES   REMARKS
WORCESTER      SUNNY     64  52  63 W15G22    30.06R
FITCHBURG      SUNNY     69  51  52 NW18      30.04S
ORANGE         SUNNY     64  54  69 W9G18     30.05F
SPRINGFIELD    MOSUNNY   67  51  57 NW9G18    30.05F
WESTFIELD      SUNNY     69  52  54 NW9       30.07R
NORTH ADAMS    SUNNY     65  53  65 VRB5      30.07S
PITTSFIELD     MOSUNNY   61  51  70 W12       30.09R
$$

RIZALL-281500-
RHODE ISLAND

CITY           SKY/WX    TMP DP  RH WIND       PRES   REMARKS
PROVIDENCE     MOSUNNY   69  53  56 NW7       30.04F
NEWPORT        SUNNY     69  53  56 NW10      30.04S
BLOCK ISLAND   SUNNY     66  53  63 W10       30.08S
WESTERLY       SUNNY     70  52  52 N12G18    30.07S
$$

CTZALL-281500-
CONNECTICUT

CITY           SKY/WX    TMP DP  RH WIND       PRES   REMARKS
BRADLEY INTL   MOSUNNY   69  52  54 W6        30.07F
HARTFORD       SUNNY     69  53  56 VRB7      30.07F
BRIDGEPORT     SUNNY     72  51  47 NW12      30.09F
GROTON         SUNNY     70  52  52 NW8       30.06S
NEW HAVEN      SUNNY     69  51  52 NW8G18    30.08F
CHESTER        FAIR      68  48  49 NW8G14    30.08S
MERIDEN        SUNNY     68  52  56 W8        30.08F
WILLIMANTIC    SUNNY     69  54  58 NW12G17   30.07F
OXFORD         MOSUNNY   64  48  55 N8G16     30.10F
$$

MEZ002-015-021-024-NHZ003-005-008-011-012-014-VTZ005-008-281500-
NORTHERN NEW ENGLAND

CITY           SKY/WX    TMP DP  RH WIND       PRES   REMARKS
PORTLAND ME    MOSUNNY   67  53  61 NW13      29.96F
BANGOR ME      PTSUNNY   64  55  72 W7        29.92F
CONCORD NH     SUNNY     66  53  63 NW13      30.01F
MANCHESTER NH  MOSUNNY   66  49  54 W10       30.00F
NASHUA NH      MOSUNNY   67  53  61 W12       30.02F
PORTSMOUTH NH  MOSUNNY   67  54  61 W12G17    29.97F
JAFFREY NH     SUNNY     63  52  67 W10G21    30.05S
KEENE NH       MOSUNNY   61  54  77 S3        30.05F
BURLINGTON VT  MOSUNNY   66  54  65 W10       30.01F
MT. WASHINGTON FOG       36  36 100 W40G48      N/A  VSB 0   WCI  21
$$

NYZ052-076-281500-
EASTERN NEW YORK

CITY           SKY/WX    TMP DP  RH WIND       PRES   REMARKS
ALBANY         MOSUNNY   68  52  56 W10       30.08S
NEW YORK CITY  MOSUNNY   69  52  54 NW10      30.11S
$$

ANZALL-281500-
MARINE OBSERVATIONS

STATION/POSITION TIME  TEMP    WIND        PRES    VSBY  WAVE
                       AIR SEA DIR/SP/G                  HT/PER
                 (UTC) (F)     (DEG/KT/KT) (MB)    (MI)  (FT/S)
BOSTON BUOY      1350   59 59  270/ 10/ 12 1016.1F         1/10
BUZZARDS BAY     1300   63     280/ 12/ 13 1017.8R
NANTUCKET SOUND  1350      63              1016.6F         1/ 3
MASS BAY-STELLWA 1304   59 60  280/ 10/ 12 1015.6R         1/ 3
ISLE OF SHOALS   1300   59     280/ 14/ 16 1015.2S
S OF BLOCK IS    1355      64                N/A           2/ 3
$$

......................KEY.........................
  SKY/WX - SKY CONDITION/PRESENT WEATHER
  TMP    - TEMPERATURE IN FAHRENHEIT
  DWPT   - DEWPOINT IN FAHRENHEIT
  RH     - RELATIVE HUMIDITY IN PERCENT
  WIND   - DIRECTION AND SPEED IN MPH
  PRES   - MEAN SEA LEVEL PRESSURE IN INCHES OF HG
  WCI    - WIND CHILL INDEX
  VSB    - VISIBILITY IN MILES
  HX     - HEAT INDEX
  TC     - TEMPERATURE IN CELSIUS
  VRB    - VARIABLE WIND DIRECTION
  N/A    - NOT AVAILABLE



USA.gov is the U.S. government's official web portal to all federal, state and local government web resources and services.